Regional Weather Roundup
Issued by NWS

Home | Current Version | Previous Version | Graphics & Text | Print | Product List | Glossary On
Versions: 1 2 3 4 5 6 7 8 9 10 11 12 13 14 15 16 17 18 19 20 21 22 23 24 25 26 27 28 29 30 31 32 33 34 35 36 37 38 39 40 41 42 43 44 45 46 47 48 49 50
000
ASUS43 KIND 301909
RWRIN

WEATHER ROUNDUP FOR INDIANA
NATIONAL WEATHER SERVICE INDIANAPOLIS IN
300 PM EDT SAT AUG 30 2014

NOTE: "FAIR" INDICATES FEW OR NO CLOUDS BELOW 12,000 FEET WITH NO
SIGNIFICANT WEATHER AND/OR OBSTRUCTIONS TO VISIBILITY.

* - STATION DOES NOT REPORT WEATHER SUCH AS PRECIPITATION OR FOG.

+ - STATION NOT QUALITY CONTROLLED BY THE NATIONAL WEATHER SERVICE.
    USE DATA WITH CAUTION...ESPECIALLY DEWPOINT AND RELATIVE
    HUMIDITY OBSERVATIONS.

INZ001>003-010>013-019-020-302000-
NORTHWEST INDIANA

CITY           SKY/WX    TMP DP  RH WIND       PRES   REMARKS
GARY /AIRPORT/ PTSUNNY   79  72  78 SW15G26   29.88S
KNOX *+        PTSUNNY   80  69  67 SW13G22   29.90S
LA PORTE +     CLOUDY    79  69  72 SW12G22   29.90F
MICHIGAN CITY+ PTSUNNY   79  68  69 SW18G25   29.89S
MONTICELLO +   PTSUNNY   81  71  73 S15G22    29.93S
RENSSELAER +   CLOUDY    81  73  78 S10       29.91F
VALPARAISO     LGT RAIN  80  70  71 SW20G26   29.90F

$$

LMZ046-743>745-302000-
SOUTHERN LAKE MICHIGAN

STATION/POSITION TIME  TEMP WIND        PRES
                       AIR  DIR/SP/G
                 (UTC) (F)  (DEG/KT/KT) (MB)
MICHIGAN CITY    1900   78  190/ 17/ 26   N/A

$$

INZ004-005-014>016-021>024-302000-
NORTH CENTRAL INDIANA

CITY           SKY/WX    TMP DP  RH WIND       PRES   REMARKS
ELKHART        PTSUNNY   82  68  61 SW12G23   29.91
GOSHEN         PTSUNNY   84  68  58 SW17G30   29.91F
LOGANSPORT +   PTSUNNY   82  68  61 SW15G21   29.94F
PERU/GRISSOM   MOSUNNY   82  74  75 SW16G24   29.94F
ROCHESTER +    PTSUNNY   86  70  58 SW16G22   29.93F
SOUTH BEND     LGT RAIN  82  69  64 SW17G28   29.90S
WARSAW +       PTSUNNY   82  70  65 SW10G16   29.92F

$$

INZ006>009-017-018-025>027-302000-
NORTHEAST INDIANA

CITY           SKY/WX    TMP DP  RH WIND       PRES   REMARKS
ANGOLA *+      MOSUNNY   86  70  58 SW17      29.92F
AUBURN +       MOSUNNY   82  64  54 SW14G21   29.95F
FORT WAYNE     PTSUNNY   81  69  67 S21       29.96F
HUNTINGTON +   PTSUNNY   81  70  69 SW14G23   29.95F

$$

INZ028-029-035-036-043>045-051>053-302000-
WEST CENTRAL INDIANA

CITY           SKY/WX    TMP DP  RH WIND       PRES   REMARKS
GREENCASTLE +  CLOUDY    77  70  78 S9        30.01F
LAFAYETTE      PTSUNNY   81  70  69 S15G22    29.93F
TERRE HAUTE    PTSUNNY   80  69  69 S14       29.98F

$$

INZ030>032-037>040-046>048-054>057-064-065-302000-
CENTRAL INDIANA

CITY           SKY/WX    TMP DP  RH WIND       PRES   REMARKS
ANDERSON       PTSUNNY   79  68  69 S17       30.01F
CP ATTERBURY + CLOUDY    77  70  78 S6        30.03F
COLUMBUS       PTSUNNY   77  73  88 S8        30.04F
FRANKFORT +    PTSUNNY   82  71  70 SW12G20   29.98F
INDIANAPOLIS   CLOUDY    77  69  76 S14       29.99F
-EAGLE CREEK   PTSUNNY   78  68  71 VRB7      30.00S
KOKOMO *+      MOSUNNY   81  70  69 SW20      29.96F
MARION +       PTSUNNY   79  68  67 SW14G21   29.98F
MT COMFORT *+  PTSUNNY   77  72  83 SW10G17   30.01F
SHELBYVILLE    CLOUDY    77  71  82 S14       30.02F
ZIONSVILLE +   PTSUNNY   80  69  69 SW12G22   30.00F

$$

INZ033-034-041-042-049-050-058-059-302000-
EAST CENTRAL INDIANA

CITY           SKY/WX    TMP DP  RH WIND       PRES   REMARKS
MUNCIE         CLOUDY    80  69  69 SW14G24   30.00F

$$

INZ060-061-067>069-081>083-085>088-302000-
SOUTHWEST INDIANA

CITY           SKY/WX    TMP DP  RH WIND       PRES   REMARKS
EVANSVILLE     LGT RAIN  79  72  79 SW3       30.03F
WASHINGTON +   CLOUDY    78  72  81 SW6       30.02S

$$

INZ062-063-066-070>080-084-089>092-302000-
SOUTH CENTRAL AND SOUTHEAST INDIANA

CITY           SKY/WX    TMP DP  RH WIND       PRES   REMARKS
BEDFORD +      CLOUDY    77  68  73 S6        30.03
BLOOMINGTON    CLOUDY    77  71  82 SW8       30.02F

$$



USA.gov is the U.S. government's official web portal to all federal, state and local government web resources and services.